Fosston, MN

5:13 PM CDT on April 22, 2018 (GMT -0500)
Fosston Municipal

Weather History for KFSE - December, 2010

Change the Weather History Date:

Friday, December 31, 2010

  Actual Average Record
Temperature  
Mean Temperature 2 °F -  
Max Temperature 8 °F 11 °F 37 °F (1953)
Min Temperature -4 °F -6 °F -40 °F (1990)
Degree Days  
Heating Degree Days 63    
Moisture  
Dew Point -3 °F    
Average Humidity 80    
Maximum Humidity 92    
Minimum Humidity 72    
Precipitation  
Precipitation 0.00 in - - ()
Sea Level Pressure  
Sea Level Pressure 29.74 in    
Wind  
Wind Speed 19 mph (North)    
Max Wind Speed 25 mph    
Max Gust Speed 33 mph    
Visibility 5 miles    
Events Snow    
Averages and records for this station are not official NWS values.
T = Trace of Precipitation, MM = Missing Value Source: NWS Daily Summary

Daily Weather History Graph

Daily Weather History Graph

Search for Another Location

Airport or City:

Astronomy

Dec. 31, 2010 Rise Set
Actual Time 8:11 AM CST 4:41 PM CST
Civil Twilight 7:35 AM CST 5:17 PM CST
Nautical Twilight 6:56 AM CST 5:56 PM CST
Astronomical Twilight 6:18 AM CST 6:33 PM CST
Moon 4:40 AM CST (12/31) 1:28 PM CST (12/31)
Length of Visible Light 9h 41m
Length of Day
8h 29m
Waning Crescent, 14% of the Moon is Illuminated
Dec 31
Waning Crescent
Jan 4
New
Jan 12
First Quarter
Jan 19
Full
Jan 26
Last Quarter

Hourly Weather History & Observations

Time (CST) Temp. Windchill Dew Point Humidity Pressure Visibility Wind Dir Wind Speed Gust Speed Precip Events Conditions
12:13 AM 1.4 °F -21.4 °F -0.4 °F 92% 29.65 in 1.2 mi North 23.0 mph 27.6 mph N/A   Overcast
12:33 AM 1.4 °F -22.3 °F -2.2 °F 85% 29.66 in 1.2 mi North 25.3 mph 32.2 mph N/A   Overcast
12:53 AM 1.4 °F -21.9 °F -2.2 °F 85% 29.68 in 1.5 mi NNW 24.2 mph 31.1 mph N/A   Overcast
1:13 AM 1.4 °F -21.0 °F -2.2 °F 85% 29.69 in 1.5 mi NNW 21.9 mph 29.9 mph N/A   Overcast
1:33 AM 1.4 °F -21.9 °F -2.2 °F 85% 29.70 in 1.8 mi North 24.2 mph 28.8 mph N/A   Overcast
1:53 AM 1.4 °F -21.9 °F -2.2 °F 85% 29.71 in 2.0 mi NNW 24.2 mph 28.8 mph N/A   Overcast
2:33 AM 1.4 °F -19.9 °F -2.2 °F 85% 29.74 in 1.8 mi NNW 19.6 mph 25.3 mph N/A Snow Light Snow
2:53 AM -0.4 °F -21.2 °F -4.0 °F 85% 29.75 in 2.0 mi NNW 17.3 mph 24.2 mph N/A Snow Light Snow
3:13 AM -0.4 °F -22.3 °F -4.0 °F 85% 29.76 in 2.0 mi North 19.6 mph - N/A   Overcast
3:33 AM -0.4 °F -24.3 °F -4.0 °F 85% 29.76 in 1.8 mi North 24.2 mph 27.6 mph N/A   Overcast
3:53 AM -0.4 °F -23.8 °F -4.0 °F 85% 29.76 in 2.5 mi North 23.0 mph 28.8 mph N/A   Overcast
4:13 AM -0.4 °F -21.2 °F -4.0 °F 85% 29.78 in 3.0 mi North 17.3 mph 24.2 mph N/A   Overcast
4:33 AM -0.4 °F -23.3 °F -4.0 °F 85% 29.77 in 3.0 mi North 21.9 mph - N/A   Overcast
4:53 AM -0.4 °F -21.7 °F -5.8 °F 78% 29.77 in 4.0 mi North 18.4 mph - N/A   Overcast
5:13 AM -0.4 °F -21.2 °F -5.8 °F 78% 29.77 in 7.0 mi North 17.3 mph - N/A   Overcast
5:33 AM -0.4 °F -22.8 °F -5.8 °F 78% 29.75 in 4.0 mi North 20.7 mph - N/A   Mostly Cloudy
5:53 AM -2.2 °F -24.1 °F -5.8 °F 85% 29.76 in 7.0 mi North 18.4 mph - N/A   Scattered Clouds
6:13 AM -2.2 °F -20.7 °F -5.8 °F 85% 29.81 in 10.0 mi North 12.7 mph - N/A   Scattered Clouds
6:33 AM -2.2 °F -20.7 °F -7.6 °F 78% 29.82 in 10.0 mi North 12.7 mph - N/A   Clear
6:52 AM -2.2 °F -20.7 °F -7.6 °F 78% 29.82 in 10.0 mi North 12.7 mph - N/A   Clear
7:13 AM -4.0 °F -21.2 °F -7.6 °F 85% 29.85 in 10.0 mi NNW 10.4 mph - N/A   Clear
7:33 AM -4.0 °F -23.7 °F -7.6 °F 85% 29.83 in 10.0 mi North 13.8 mph - N/A   Clear
7:53 AM -4.0 °F -24.5 °F -9.4 °F 78% 29.82 in 10.0 mi North 15.0 mph - N/A   Clear
8:13 AM -4.0 °F -24.5 °F -9.4 °F 78% 29.82 in 10.0 mi North 15.0 mph - N/A   Clear
8:33 AM -4.0 °F -25.2 °F -7.6 °F 85% 29.83 in 10.0 mi North 16.1 mph - N/A   Scattered Clouds
8:53 AM -2.2 °F -23.5 °F -7.6 °F 78% 29.84 in 4.0 mi North 17.3 mph - N/A   Haze
9:13 AM -0.4 °F -21.2 °F -5.8 °F 78% 29.83 in 1.0 mi North 17.3 mph - N/A Snow Heavy Snow
9:33 AM -0.4 °F -24.3 °F -7.6 °F 72% 29.78 in 0.8 mi North 24.2 mph - N/A Snow Heavy Snow
9:53 AM -0.4 °F -20.5 °F -7.6 °F 72% 29.84 in 1.8 mi North 16.1 mph 20.7 mph N/A Snow Light Snow
10:13 AM 1.4 °F -16.9 °F -5.8 °F 72% 29.87 in 4.0 mi North 13.8 mph 17.3 mph N/A Snow Light Snow
10:33 AM 1.4 °F -13.5 °F -2.2 °F 85% 29.89 in 10.0 mi NNE 9.2 mph - N/A   Clear
10:53 AM 1.4 °F -16.1 °F -5.8 °F 72% 29.87 in 10.0 mi NNE 12.7 mph 18.4 mph N/A   Clear
11:13 AM 1.4 °F -19.9 °F -5.8 °F 72% 29.83 in 5.0 mi North 19.6 mph - N/A   Haze
11:33 AM 1.4 °F -18.8 °F -5.8 °F 72% 29.82 in 7.0 mi North 17.3 mph - N/A   Clear
11:53 AM 1.4 °F -17.6 °F -4.0 °F 78% 29.82 in 10.0 mi North 15.0 mph - N/A   Clear
12:13 PM 1.4 °F -17.6 °F -4.0 °F 78% 29.79 in 10.0 mi North 15.0 mph - N/A   Clear
12:33 PM 3.2 °F -15.3 °F -2.2 °F 78% 29.77 in 10.0 mi North 15.0 mph 21.9 mph N/A   Clear
12:53 PM 3.2 °F -11.3 °F -2.2 °F 78% 29.79 in 10.0 mi NNE 9.2 mph - N/A   Clear
1:13 PM 6.8 °F -9.3 °F 1.4 °F 79% 29.76 in 10.0 mi NNE 12.7 mph - N/A   Clear
1:33 PM 8.6 °F -6.3 °F 1.4 °F 73% 29.74 in 10.0 mi NNE 11.5 mph - N/A   Clear
1:53 PM 6.8 °F -10.7 °F -0.4 °F 72% 29.69 in 10.0 mi NNE 15.0 mph 21.9 mph N/A   Clear
2:13 PM 6.8 °F -13.8 °F -0.4 °F 72% 29.66 in 4.0 mi NNE 21.9 mph 28.8 mph N/A   Haze
2:33 PM 6.8 °F -13.4 °F 1.4 °F 79% 29.64 in 3.0 mi NNE 20.7 mph 27.6 mph N/A   Haze
2:53 PM 6.8 °F -12.9 °F 1.4 °F 79% 29.65 in 3.0 mi NE 19.6 mph 28.8 mph N/A   Haze
3:13 PM 6.8 °F -10.7 °F 1.4 °F 79% 29.67 in 10.0 mi NE 15.0 mph 24.2 mph N/A   Clear
3:33 PM 6.8 °F -12.9 °F -0.4 °F 72% 29.65 in 7.0 mi NE 19.6 mph 27.6 mph N/A   Clear
3:53 PM 6.8 °F -12.9 °F -0.4 °F 72% 29.64 in 5.0 mi NE 19.6 mph 26.5 mph N/A   Haze
4:13 PM 5.0 °F -12.3 °F -0.4 °F 78% 29.63 in 4.0 mi NE 13.8 mph 27.6 mph N/A   Haze
4:34 PM 5.0 °F -15.7 °F -0.4 °F 78% 29.58 in 1.8 mi NNE 20.7 mph 31.1 mph N/A   Overcast
4:53 PM 5.0 °F -16.7 °F -0.4 °F 78% 29.55 in 2.0 mi NNE 23.0 mph 32.2 mph N/A   Overcast
5:10 PM 5.0 °F -16.7 °F -0.4 °F 78% 29.53 in 2.0 mi NNE 23.0 mph 33.4 mph N/A   Overcast
5:33 PM 5.0 °F -16.7 °F -0.4 °F 78% 29.52 in 2.5 mi NE 23.0 mph 33.4 mph N/A Snow Light Snow
5:53 PM 5.0 °F -16.2 °F 1.4 °F 85% 29.53 in 3.0 mi NE 21.9 mph 29.9 mph N/A   Overcast
5:59 PM 5.0 °F -15.7 °F 1.4 °F 85% 29.53 in 2.5 mi NE 20.7 mph 29.9 mph N/A   Overcast
6:33 PM 6.8 °F -8.6 °F 1.4 °F 79% 29.61 in 2.0 mi ENE 11.5 mph 18.4 mph N/A Snow Light Snow
6:53 PM 6.8 °F -5.9 °F 3.2 °F 85% 29.60 in 0.2 mi NE 8.1 mph - N/A Snow Heavy Snow
7:13 PM 6.8 °F -10.0 °F 3.2 °F 85% 29.57 in 0.5 mi NNE 13.8 mph 19.6 mph 0.01 in Snow Snow
7:33 PM 6.8 °F -10.7 °F 3.2 °F 85% 29.57 in 0.5 mi NNE 15.0 mph - 0.01 in Snow Snow
7:55 PM 6.8 °F -11.8 °F 3.2 °F 85% 29.56 in 0.8 mi NNE 17.3 mph 21.9 mph 0.01 in Snow Snow
8:13 PM 6.8 °F -11.3 °F 3.2 °F 85% 29.55 in 1.2 mi NNE 16.1 mph 25.3 mph N/A Snow Light Snow
8:33 PM 6.8 °F -10.7 °F 3.2 °F 85% 29.54 in 0.8 mi NNE 15.0 mph 21.9 mph N/A Snow Snow
8:54 PM 6.8 °F -11.3 °F 1.4 °F 79% 29.54 in 1.0 mi NNE 16.1 mph 24.2 mph N/A Snow Light Snow
9:13 PM 6.8 °F -11.3 °F 1.4 °F 79% 29.53 in 1.5 mi NNE 16.1 mph 20.7 mph N/A Snow Light Snow
9:33 PM 6.8 °F -11.3 °F 1.4 °F 79% 29.52 in 2.0 mi NNE 16.1 mph 20.7 mph N/A Snow Light Snow
9:53 PM 6.8 °F -10.7 °F 1.4 °F 79% 29.51 in 1.5 mi NNE 15.0 mph 23.0 mph N/A Snow Light Snow
10:13 PM 6.8 °F -11.8 °F 1.4 °F 79% 29.49 in 1.2 mi NNE 17.3 mph 23.0 mph N/A Snow Light Snow
10:33 PM 5.0 °F -13.6 °F 1.4 °F 85% 29.48 in 1.0 mi NNE 16.1 mph 23.0 mph N/A Snow Snow
10:53 PM 5.0 °F -14.7 °F 1.4 °F 85% 29.47 in 1.2 mi NNE 18.4 mph 24.2 mph N/A Snow Light Snow
11:13 PM 3.2 °F -16.5 °F 1.4 °F 92% 29.46 in 2.0 mi NNE 17.3 mph 24.2 mph N/A Snow Light Snow
11:33 PM 3.2 °F -16.5 °F 1.4 °F 92% 29.46 in 2.5 mi North 17.3 mph 21.9 mph N/A Snow Light Snow
11:53 PM 3.2 °F -16.5 °F 1.4 °F 92% 29.45 in 2.5 mi North 17.3 mph - N/A Snow Light Snow